Other Public Products
Issued by NWS Charleston, SC

Current Version | Previous Version | Graphics & Text | Print | Product List | Glossary On
Versions: 1 2 3 4 5 6 7 8 9 10 11 12 13 14 15 16 17 18 19 20 21 22 23 24 25 26 27 28 29 30 31 32 33 34 35 36 37 38 39 40 41 42 43 44 45 46 47 48 49 50
901
FPUS82 KCHS 220027
OPUCHS

TEST...KCHS/KSAV Gateway Observations...TEST
National Weather Service Charleston SC
800 PM EDT MON AUG 21 2017

NOTE: "fair" indicates few or no clouds below 12,000 feet with no
significant weather and/or obstructions to visibility.

SCZ050-WAZ558-NCZ071-TXZ119-213-PAZ071-DCZ001-FLZ074-172-MI076-
NYZ176-178-MAZ016-IL014-TNZ027-NJZ106-GAZ044-MD014-220100-

...Gateway Observations for Charleston International...

CITY           SKY/WX    TMP DP  RH WIND       PRES   REMARKS
Chas Airport   MOCLDY    77  76  96 W3        30.14S
6HR MIN TEMP:  74; 6HR MAX TEMP:  89; 6HR PCP:  0.70;

Seattle        SUNNY     83  52  34 N10G17    30.04F
6HR MIN TEMP:  62; 6HR MAX TEMP:  83;

Charlotte      PTCLDY    84  71  65 S6        30.16R
6HR MIN TEMP:  84; 6HR MAX TEMP:  91;

Dallas DFW     MOSUNNY   93  68  43 S9        29.99F HX  97
6HR MIN TEMP:  90; 6HR MAX TEMP:  95;

Dallas Love    MOSUNNY   93  69  45 SE14      30.00F HX  98
6HR MIN TEMP:  90; 6HR MAX TEMP:  96;

Philladelphia  CLOUDY    81  71  71 S7        30.12S
6HR MIN TEMP:  81; 6HR MAX TEMP:  93;

Wash National  CLOUDY    79  72  79 S9        30.13R
6HR MIN TEMP:  79; 6HR MAX TEMP:  89; 6HR PCP:  0.01;

Baltimore      MOCLDY    75  73  93 S5        30.11F
6HR MIN TEMP:  74; 6HR MAX TEMP:  87; 6HR PCP:  0.02;

Miami          PTCLDY    85  75  72 E9        30.06R HX  93
6HR MIN TEMP:  80; 6HR MAX TEMP:  92; 6HR PCP:  0.19;

Detroit        MOCLDY    82  72  71 S6        30.00S
6HR MIN TEMP:  81; 6HR MAX TEMP:  86;

Newark         MOCLDY    81  69  67 S13       30.10R
6HR MIN TEMP:  81; 6HR MAX TEMP:  88;

Laguardia      MOCLDY    81  70  69 S10       30.10R
6HR MIN TEMP:  81; 6HR MAX TEMP:  88;

J F K          MOCLDY    77  74  90 S14       30.11R
6HR MIN TEMP:  77; 6HR MAX TEMP:  84;

Boston Logan   PTCLDY    81  63  54 SW10      30.06F
6HR MIN TEMP:  81; 6HR MAX TEMP:  87;

Ft. Lauderdale PTCLDY    85  76  74 SE8       30.05R HX  94
6HR MIN TEMP:  85; 6HR MAX TEMP:  90;

Chicago O`Hare CLOUDY    81  67  62 SW12G18   29.99F
6HR MIN TEMP:  80; 6HR MAX TEMP:  87; 6HR PCP: TRACE;

Chicago Midway MOCLDY    80  71  74 SW9       30.00S
6HR MIN TEMP:  79; 6HR MAX TEMP:  87; 6HR PCP:  0.06;

Houston Bush   MOSUNNY   86  74  67 NE12      30.03R HX  94
6HR MIN TEMP:  86; 6HR MAX TEMP:  94;

Houston Hobby  MOSUNNY   92  72  51 SE10      30.02R HX  99
6HR MIN TEMP:  91; 6HR MAX TEMP:  95;

Nashville      PTCLDY    89  68  49 S5        30.10R HX  93
6HR MIN TEMP:  87; 6HR MAX TEMP:  95;

Atlanta        PTCLDY    87  68  52 SE7       30.14S HX  90
6HR MIN TEMP:  87; 6HR MAX TEMP:  91;


$$

GAZ044-118-TXZ119-213-NCZ071-DCZ001-MDZ014-506-PAZ021-071-NJZ106-
NYZ176-178-MAZ106-OHZ011-021-055-MIZ076-KYZ091-ILZ014-INZ047-
MNZ060-ONZ431-220100-

...Gateway Observations for Savannah International...

CITY           SKY/WX    TMP DP  RH WIND       PRES   REMARKS
Savannah Arpt  CLOUDY    78  74  87 NE3       30.14F
6HR MIN TEMP:  77; 6HR MAX TEMP:  84; 6HR PCP:  0.03;

Atlanta        PTCLDY    87  68  52 SE7       30.14S HX  90
6HR MIN TEMP:  87; 6HR MAX TEMP:  91;

Charlotte      PTCLDY    84  71  65 S6        30.16R
6HR MIN TEMP:  84; 6HR MAX TEMP:  91;

Dallas DFW     MOSUNNY   93  68  43 S9        29.99F HX  97
6HR MIN TEMP:  90; 6HR MAX TEMP:  95;

Houston Bush   MOSUNNY   86  74  67 NE12      30.03R HX  94
6HR MIN TEMP:  86; 6HR MAX TEMP:  94;

Wash National  CLOUDY    79  72  79 S9        30.13R
6HR MIN TEMP:  79; 6HR MAX TEMP:  89; 6HR PCP:  0.01;

Wash Dulles    CLOUDY    78  74  87 S7        30.13R
6HR MIN TEMP:  78; 6HR MAX TEMP:  89;

Baltimore      MOCLDY    75  73  93 S5        30.11F
6HR MIN TEMP:  74; 6HR MAX TEMP:  87; 6HR PCP:  0.02;

Philadelphia   CLOUDY    81  71  71 S7        30.12S
6HR MIN TEMP:  81; 6HR MAX TEMP:  93;

Newark         MOCLDY    81  69  67 S13       30.10R
6HR MIN TEMP:  81; 6HR MAX TEMP:  88;

Laguardia      MOCLDY    81  70  69 S10       30.10R
6HR MIN TEMP:  81; 6HR MAX TEMP:  88;

J F K          MOCLDY    77  74  90 S14       30.11R
6HR MIN TEMP:  77; 6HR MAX TEMP:  84;

Boston         PTCLDY    81  63  54 SW10      30.06F
6HR MIN TEMP:  81; 6HR MAX TEMP:  87;

Pittsburg      CLOUDY    82  72  71 SW5       30.11S
6HR MIN TEMP:  82; 6HR MAX TEMP:  85;

Akron          PTCLDY    83  70  64 SW8       30.09S
6HR MIN TEMP:  83; 6HR MAX TEMP:  90;

Cleveland      MOCLDY    85  71  63 S7        30.06S HX  90
6HR MIN TEMP:  85; 6HR MAX TEMP:  91; 6HR PCP: TRACE;

Cincinnati     CLOUDY    83  71  67 S3        30.10S
6HR MIN TEMP:  83; 6HR MAX TEMP:  90;

Columbus       CLOUDY    80  71  73 S7        30.08S
Detroit        MOCLDY    82  72  71 S6        30.00S
6HR MIN TEMP:  81; 6HR MAX TEMP:  86;

Chicago O`Hare CLOUDY    81  67  62 SW12G18   29.99F
6HR MIN TEMP:  80; 6HR MAX TEMP:  87; 6HR PCP: TRACE;

Minneapolis    CLOUDY    70  65  84 W7        29.88R
6HR MIN TEMP:  69; 6HR MAX TEMP:  79; 6HR PCP:  0.19;

Indianapolis   MOCLDY    77  71  82 S7        30.06S
6HR MIN TEMP:  76; 6HR MAX TEMP:  88; 6HR PCP:  0.01;

Toronto Canada MOCLDY    82  66  57 SW9       30.01S

$$




USA.gov is the U.S. government's official web portal to all federal, state and local government web resources and services.